Location: Holmes Observatory
(37.1039°N, 122.0513°W)
Time: 03:50:09
(UTC-07:00)

Daily predictions for brighter satellites

Satellite Brightness Start Highest point End
(mag) Time Altitude Azimuth Time Altitude Azimuth Time Altitude Azimuth
Cosmos 405 Rocket 4.5 00:00:05 10° N 00:02:04 28° NNE 00:02:04 28° NNE
Cosmos 1190 Rocket 4.0 00:09:49 78° NNW 00:09:49 78° NNW 00:14:47 10° NNE
SL-19 R/B 4.1 00:09:25 10° NNE 00:14:24 72° NE 00:14:24 72° NE
Cosmos 2369 Rocket 3.2 00:18:27 35° ENE 00:18:27 35° ENE 00:22:26 10° NE
Cosmos 1151 Rocket 4.1 00:13:32 10° N 00:16:30 42° NNE 00:16:30 42° NNE
ALOS 2 3.7 00:21:19 40° NE 00:21:19 40° NE 00:24:33 10° N
ATLAS 5 CENTAUR R/B 4.3 00:19:53 10° W 00:23:04 18° NW 00:26:26 10° N
Mayak 0.1 00:18:56 10° NNE 00:21:27 35° NNE 00:21:27 35° NNE
CZ-4 R/B 4.2 00:22:26 10° N 00:26:31 59° NNW 00:26:31 59° NNW
Nadezhda 1 Rocket 3.9 00:28:39 74° SW 00:29:12 81° W 00:35:38 10° N
Cosmos 2058 4.4 00:30:17 33° NW 00:30:17 33° NW 00:33:10 10° N
Cosmos 2151 4.2 00:31:41 39° NW 00:31:41 39° NW 00:34:43 10° N
Cosmos 1809 Rocket 4.3 00:25:06 10° N 00:31:12 81° W 00:31:22 80° WSW
Cosmos 371 Rocket 3.9 00:29:36 10° NNW 00:33:35 54° NNE 00:33:35 54° NNE
H-2A R/B 3.5 00:37:33 31° NNE 00:37:33 31° NNE 00:40:08 10° N
Cosmos 2082 Rocket 3.3 00:33:54 10° NW 00:38:31 34° W 00:38:31 34° W
Cosmos 1833 Rocket 4.0 00:34:25 10° NW 00:38:42 29° W 00:38:42 29° W
In-Cosmos 22 Rocket 4.4 00:52:56 58° NE 00:52:56 58° NE 00:57:29 10° NNE
Cosmos 1943 Rocket 2.6 00:53:13 51° ENE 00:53:13 51° ENE 00:57:41 10° NNE
Meteor 2-14 Rocket 4.4 00:49:30 10° NNW 00:55:28 68° W 00:55:28 68° W
Timation 2 Rocket 4.3 00:49:38 10° NNW 00:56:22 66° ENE 00:57:19 60° ESE
CZ-4B R/B 3.7 00:51:09 10° N 00:55:50 70° N 00:55:50 70° N
Cosmos 2263 4.4 01:03:49 60° ENE 01:03:49 60° ENE 01:08:34 10° NNE
Cosmos 2098 Rocket 4.1 01:03:08 10° N 01:10:21 67° E 01:10:52 64° ESE
Cosmos 1140 Rocket 4.4 01:15:08 38° WNW 01:15:08 38° WNW 01:19:48 10° N
Meteor 2-8 Rocket 4.4 01:16:16 77° W 01:16:18 77° W 01:22:29 10° N
Sich 1 4.2 01:24:58 42° N 01:24:58 42° N 01:27:55 10° N
Cosmos 1741 Rocket 4.3 01:24:26 67° N 01:24:26 67° N 01:29:01 10° NNE
ADEOS Rocket 4.1 01:25:42 10° N 01:31:11 36° WNW 01:32:32 33° W
Cosmos 1867 4.4 01:37:59 41° E 01:37:59 41° E 01:42:08 10° NE
CENTAUR R/B 4.4 01:35:36 10° WNW 01:41:41 25° WSW 01:41:41 25° WSW
Cosmos 2208 Rocket 4.2 01:39:14 10° NNW 01:44:26 67° NE 01:44:26 67° NE
Lacrosse 4 Rocket 2.8 01:48:03 36° NE 01:48:03 36° NE 01:50:51 10° NNE
Cosmos 1633 Rocket 4.1 01:50:31 44° NNW 01:50:31 44° NNW 01:53:39 10° N
Meteor 1-26 Rocket 4.2 01:44:03 10° N 01:49:34 79° NE 01:49:34 79° NE
Cosmos 1818 4.1 01:45:50 10° NNW 01:51:11 52° ENE 01:51:56 48° E
USA 234 3.3 01:48:03 10° NE 01:54:34 73° NW 01:56:08 53° WSW
Meteor 2-15 Rocket 4.3 01:58:19 72° ESE 01:58:38 73° E 02:04:41 10° NNE
Cosmos 1470 Rocket 4.3 02:00:32 51° NNE 02:00:32 51° NNE 02:03:56 10° N
Cosmos 2369 Rocket 3.6 02:00:13 25° WNW 02:01:18 27° WNW 02:06:04 10° N
Meteor 2-15 4.2 02:04:40 79° WSW 02:04:55 81° W 02:11:00 10° N
Cosmos 1825 3.9 02:08:25 32° N 02:08:25 32° N 02:10:33 10° N
SL-8 Rocket 4.5 02:01:10 10° NNW 02:07:06 46° W 02:07:09 46° W
Cosmos 864 Rocket 4.5 02:01:29 10° NNW 02:07:38 64° W 02:07:48 64° W
Cosmos 2218 Rocket 4.2 02:04:14 10° NNW 02:10:12 52° W 02:10:15 52° W
MOS 1 Rocket 4.1 02:06:54 10° N 02:10:53 44° NW 02:10:53 44° NW
Cosmos 1656 Rocket 3.7 02:13:56 68° WNW 02:14:03 68° WNW 02:19:42 10° NNE
Meteor 2-3 Rocket 4.1 02:18:29 51° W 02:18:38 51° WNW 02:24:16 10° N
Cosmos 1606 4.2 02:15:16 10° N 02:17:35 35° N 02:17:35 35° N
Cosmos 1933 Rocket 4.2 02:22:18 51° NNW 02:22:18 51° NNW 02:25:41 10° N
CZ-4B R/B 3.7 02:26:18 22° NNE 02:26:18 22° NNE 02:27:36 10° N
Cosmos 1763 Rocket 3.3 02:23:03 10° NNW 02:27:55 82° N 02:27:55 82° N
Cosmos 1862 4.4 02:30:19 39° ENE 02:30:19 39° ENE 02:33:21 10° NNE
Cosmos 292 Rocket 3.9 02:25:17 10° NNW 02:30:06 68° ENE 02:30:09 68° ENE
Cosmos 1943 Rocket 4.0 02:34:43 16° WNW 02:36:22 19° NW 02:40:12 10° N
NPP 3.9 02:32:03 10° NNE 02:37:20 55° E 02:38:02 51° SE
CZ-2D R/B 3.0 02:32:57 10° NNE 02:37:57 39° E 02:38:59 36° SE
ARIANE 5 R/B 4.2 02:38:03 10° NE 02:41:59 23° E 02:43:28 20° ESE
CBERS-1 4.3 02:38:02 10° NNE 02:43:05 55° E 02:43:42 51° SE
Spot 2 4.3 02:40:38 10° N 02:44:16 61° NNW 02:44:16 61° NNW
Nadezhda 3 Rocket 4.2 02:45:31 51° WSW 02:46:31 57° W 02:52:46 10° N
IRS-P3 4.3 02:42:02 10° NNE 02:47:20 61° ESE 02:48:12 53° SE
SL-16 R/B 2.8 02:51:41 29° SE 02:54:50 63° ENE 03:00:55 10° N
Cosmos 1814 Rocket 4.1 02:50:51 10° NNW 02:55:47 55° W 02:55:47 55° W
Resurs 1-4 Rocket 2.4 02:50:45 10° NNE 02:56:02 60° ESE 02:57:10 49° SSE
Cosmos 1934 Rocket 4.0 02:49:44 10° N 02:56:04 78° E 02:58:18 43° SSE
Cosmos 1869 Rocket 3.5 02:57:54 84° NE 02:57:54 84° NE 03:02:11 10° N
Cosmos 2239 Rocket 4.4 02:51:49 10° N 02:58:01 74° W 02:59:28 54° SSW
GP-B 3.6 02:53:45 10° N 02:57:35 47° WNW 02:57:35 47° WNW
SL-08 R/B 3.7 02:59:48 42° SE 03:01:09 59° ENE 03:05:45 10° N
Cosmos 841 Rocket 3.3 02:56:16 10° NNW 03:01:26 67° WSW 03:01:38 66° WSW
Cosmos 1437 Rocket 2.9 03:06:37 72° NW 03:06:37 72° NW 03:10:28 10° N
SL-8 R/B 4.0 03:02:13 10° NW 03:07:02 68° NNE 03:11:50 10° ESE
H-2A R/B 2.5 03:03:46 10° NNE 03:07:34 64° E 03:07:34 64° E
Cosmos 1633 4.1 03:08:52 26° ESE 03:09:19 27° E 03:12:26 10° NNE
Cosmos 2221 Rocket 3.7 03:07:31 10° N 03:11:59 71° E 03:12:50 55° SE
Genesis I 3.9 03:08:15 10° NNW 03:12:16 55° ENE 03:13:51 33° ESE
Okean 1-7 2.9 03:10:37 10° N 03:15:00 75° W 03:15:10 74° WSW
UNK 3.6 03:16:03 59° S 03:16:57 87° WSW 03:21:38 10° NNW
Meteor 2-6 Rocket 4.5 03:13:14 10° NNW 03:18:21 44° W 03:18:50 43° WSW
TIMED 4.4 03:19:29 67° S 03:20:00 79° ESE 03:24:23 10° NNE
Cosmos 1703 Rocket 4.0 03:16:06 10° NNW 03:19:58 44° W 03:19:58 44° W
ATLAS 2A CENTAUR R/B 4.2 03:14:22 30° SW 03:20:52 44° S 03:28:48 10° ESE
Milstar 3 Cent rocket 4.5 03:00:17 10° WSW 03:22:27 59° S 03:32:33 10° ESE
Cosmos 2219 3.1 03:17:19 10° NNW 03:22:59 83° WSW 03:25:43 32° SSE
Cosmos 2369 4.3 03:21:03 31° SSE 03:23:18 47° ESE 03:28:42 10° NE
Lacrosse 4 Rocket 3.8 03:24:21 13° WNW 03:25:35 14° NW 03:27:58 10° NNW
Cosmos 1980 Rocket 4.4 03:22:26 10° SE 03:25:50 17° E 03:29:16 10° ENE
Spot 4 Rocket 4.2 03:21:28 10° NNE 03:26:36 66° ESE 03:28:34 37° S
COSMOS 2455 2.9 03:23:18 10° NW 03:29:08 54° WSW 03:30:56 40° SSW
AQUA 4.2 03:29:21 10° N 03:33:56 49° WNW 03:34:56 42° WSW
ERS-1 4.5 03:29:34 10° NNE 03:34:48 89° WNW 03:36:44 40° SSW
Cosmos 836 Rocket 4.4 03:30:59 10° NNW 03:36:17 78° WSW 03:38:55 30° S
USA 229 DEB 3.7 03:29:09 10° NW 03:36:25 79° WSW 03:43:50 10° SSE
USA 229 3.8 03:29:16 10° NW 03:36:32 79° WSW 03:43:58 10° SSE
IRS-1D 3.4 03:31:47 10° N 03:36:51 71° WNW 03:38:27 43° SW
ATLAS CENTAUR R/B 1.3 03:37:00 53° W 03:37:22 57° WNW 03:41:17 10° NNE
Cosmos 1727 Rocket 3.9 03:37:32 33° SSW 03:40:31 82° W 03:46:49 10° N
Cosmos 1733 Rocket 3.1 03:41:06 40° S 03:42:36 75° E 03:46:56 10° N
Cosmos 44 4.4 03:42:47 25° W 03:44:23 31° NW 03:48:47 10° NNE
Cosmos 2297 Rocket 2.8 03:39:09 10° NNW 03:44:43 57° ENE 03:50:15 10° SE
Shenzhou-11 Module 3.1 03:47:16 34° ESE 03:47:16 34° ESE 03:49:28 10° ENE
Cosmos 44 Rocket 3.8 03:46:40 34° WSW 03:48:19 48° NW 03:53:10 10° NNE
ATLAS CENTAUR Rocket 3.0 03:48:07 26° S 03:48:33 27° SSE 03:54:16 10° ESE
Cosmos 2278 3.8 03:46:35 30° S 03:49:27 72° ESE 03:55:06 10° NNE
Lacrosse 5 3.7 03:45:08 10° NNW 03:49:42 33° NE 03:54:16 10° ESE
Meteor 1-27 Rocket 4.3 03:45:14 10° NNW 03:50:40 41° W 03:52:40 31° SW
Cosmos 968 Rocket 3.5 03:48:38 36° SSW 03:50:45 72° WNW 03:56:02 10° NNE
Cosmos 2227 Rocket 2.3 03:48:02 10° NNW 03:53:44 75° ENE 03:59:23 10° SSE
CBERS 1 LM4 rocket 4.4 03:49:05 10° NNE 03:54:03 79° ESE 03:56:35 28° S
Meteor 1-4 Rocket 3.9 03:54:39 25° WNW 03:54:43 25° WNW 03:57:49 10° NNW
Centaur D AC-28 3.9 03:39:57 10° W 03:55:10 31° SW 03:59:53 10° SSE
Cosmos 1674 Rocket 4.0 03:52:45 10° N 03:57:00 58° E 04:00:48 13° SSE
ATLAS 5 CENTAUR R/B 4.1 03:53:23 23° WSW 03:57:11 57° NW 04:18:30 10° NE
ADEOS II 2.7 03:54:47 10° NNE 03:59:55 52° E 04:04:09 15° S
Cosmos 1656 3.7 03:57:50 30° SSW 04:00:47 78° WNW 04:06:29 10° NNE
Gbstr 26 Del rocket 3.4 04:00:13 33° S 04:01:17 42° SE 04:05:00 10° ENE
Cosmos 389 Rocket 2.8 04:01:11 42° WSW 04:01:54 49° W 04:05:27 10° N
Cosmos 1908 Rocket 4.4 03:59:16 16° SSE 04:02:38 48° E 04:06:54 10° NNE
CZ-2D R/B 3.3 04:03:01 10° N 04:07:14 85° WNW 04:09:18 28° SSW
Helios 1A Rocket 2.8 04:05:53 10° NNE 04:09:57 84° ESE 04:12:14 25° S
Okean 1 4.1 04:07:03 10° N 04:10:55 49° E 04:14:44 10° SSE
GPS 2-04 Rocket1 2.7 04:10:02 26° WSW 04:12:18 73° S 04:16:23 10° E
Delta 2 Rocket 3.7 04:12:56 25° WSW 04:15:02 46° SSW 04:19:35 10° ESE
UNKNOWN OBJECT B 2.9 04:12:03 10° N 04:16:03 67° WNW 04:18:13 26° SSW
Meteosat 1 Rocket2 4.5 04:15:03 22° SSW 04:16:31 25° S 04:20:08 10° ESE
CZ-2D R/B 3.5 04:13:32 10° NNW 04:17:45 24° WNW 04:20:19 17° WSW
Cosmos 192 4.3 04:15:46 10° NNW 04:20:44 76° WSW 04:25:40 10° S
SL-24 R/B - RUBIN 2 4.0 04:16:28 10° NNW 04:20:49 66° ENE 04:25:23 10° SE
ARIANE 5 R/B 3.3 04:16:38 10° N 04:21:09 35° WNW 04:23:48 21° WSW
Meteor 1-20 Rocket 4.3 04:17:18 20° SSW 04:21:14 68° W 04:26:59 10° N
SAR-Lupe-2 3.5 04:18:57 19° S 04:21:24 68° W 04:24:57 10° NNW
Cosmos 1802 Rocket 4.1 04:17:42 10° N 04:23:58 82° E 04:30:07 10° S
PSLV R/B 4.5 04:27:32 20° S 04:27:32 20° S 04:29:01 10° SSE
Cosmos 2082 3.6 04:25:24 10° NNW 04:31:02 72° WSW 04:36:36 10° SSE
Cosmos 773 Rocket 4.5 04:26:09 10° NNW 04:31:26 65° ENE 04:36:41 10° SSE
BREEZE-M TANK 4.4 04:32:23 10° NW 04:34:37 21° N 04:37:26 10° ENE
Cosmos 1812 4.1 04:31:43 10° NW 04:34:46 22° W 04:36:01 19° WSW
Cosmos 2061 Rocket 4.0 04:28:51 10° N 04:35:07 82° W 04:41:25 10° S
Resurs 1-4 Rocket 3.9 04:32:05 10° NNW 04:35:19 16° WNW 04:38:14 11° W
Cosmos 1459 Rocket 4.1 04:30:40 10° NNW 04:36:59 65° W 04:43:13 10° S
Cosmos 2322 Rocket 4.4 04:33:21 10° SSE 04:37:23 21° E 04:41:24 10° NE
SL-16 R/B 3.9 04:36:46 15° WSW 04:38:51 18° W 04:42:50 10° NW
Cosmos 1697 Rocket 2.9 04:37:05 17° SW 04:41:24 56° WNW 04:47:00 10° NNE
Okean 3 4.0 04:37:46 10° NNW 04:41:43 40° W 04:45:15 12° SSW
Cosmos 1602 3.7 04:39:07 14° SSW 04:42:22 69° W 04:46:12 10° N
Cosmos 2360 4.3 04:37:24 12° SSW 04:42:42 83° ESE 04:48:25 10° NNE
PSLV R/B 4.2 04:38:28 10° NNE 04:42:47 55° E 04:47:04 10° S
Cosmos 1725 Rocket 4.3 04:37:12 10° N 04:43:31 72° E 04:49:46 10° SSE
Lacrosse 5 rocket 2.0 04:41:02 14° SSW 04:44:34 54° SE 04:49:00 10° NE
Cosmos 2100 Rocket 4.3 04:40:31 10° NNW 04:46:26 49° W 04:52:23 10° SSW
Okean O Rocket 4.1 04:43:47 10° NE 04:47:06 20° E 04:50:24 10° SE
NOSS 3-1 (C) 4.4 04:43:09 10° NW 04:50:34 45° WSW 04:58:36 10° S
USA 102 3.3 04:49:41 10° SSE 04:52:07 83° WSW 04:56:25 10° NNW
Sich 1 Rocket 3.7 04:53:12 10° SSW 04:57:34 56° W 05:01:55 10° N
Okean 2 Rocket 3.2 05:01:38 10° S 05:06:02 81° E 05:10:29 10° N
SL-16 R/B 3.4 05:02:54 10° S 05:08:11 42° ESE 05:13:28 10° NE
Cosmos 1980 Rocket 2.4 05:03:45 10° SW 05:09:15 58° WNW 05:14:49 10° NNE
Cosmos 2123 Rocket 4.2 05:04:36 10° SSW 05:10:39 55° W 05:16:43 10° N
Meteor 1-19 Rocket 4.2 05:06:46 10° NNW 05:12:12 63° W 05:17:38 10° S
Iridium 51 4.1 05:09:31 10° N 05:13:08 75° W 05:17:01 10° S
Cosmos 1782 Rocket 4.2 05:13:52 10° SSW 05:17:59 39° W 05:22:05 10° N
Meteor 1-13 Rocket 4.2 05:13:38 10° NNW 05:19:11 74° W 05:24:40 10° S
CZ-4B R/B 4.4 05:16:06 10° NNE 05:21:16 45° E 05:26:29 10° S
Cosmos 1680 Rocket 4.1 05:16:26 10° NNW 05:21:44 66° ENE 05:27:00 10° SSE
